THORAD DELTA 1 DEB, 8145

Orbit data source: Space-Track

THORAD DELTA 1 DEB, 8145 is space debris in SSO originally from a launch on Fri, 15 Nov 1974 UTC launched from the Air Force Western Test Range (AFWTR). Debris objects in space refer to the collection of defunct objects orbiting the Earth. Examples of debris include non-operational satellites, rocket bodies, and fragments generated from explosions, collisions, or faulty payload assembly.

Loading next visibility...
Identifier
8145, 1974-089P
Orbit
SSO
Country
Flag of USUS
Related business
Manufacturer
Unknown
Mission
Spacecraft
Bus & Motor
Unknown
Mass
Unknown
Launch date (UTC)
1974-11-15 (51 years ago)
Launch vehicle
Unknown
Launch site
Air Force Western Test Range (AFWTR)
Object type
Payload
Rocket body
Debris
Shape & HBR
Unknown shape, 0.2 m
Radar Cross Section
Medium (>0.1 m² and <1 m²)

Expand to show TLE details & history
Last TLE update: 18 hours ago

TLE from 18 hours ago
0 THORAD DELTA 1 DEB
1 08145U 74089P   25352.07340468  .00000157  00000-0  11353-2 0  9993
2 08145 101.1019 202.8232 0027790 145.6286   7.5680 12.60609222347436
Epoch: 2025-12-18T01:45Z
TLE epoch observation values (Epoch: 2025-12-18T01:45:42.164Z)
Latitude
26.25587°
Longitude
-85.00966°
Altitude
1,401.877 km
Speed
7.171 km/s
True Right ascension
01h 53m 24s
True Declination
26° 07' 51"
Sunlit
Object was in full shadow at epoch
Visualization orbit readout
Latitude
Unknown
Longitude
Unknown
Altitude
Unknown
Speed
Unknown
Apparent Right ascension
Unknown
Apparent Declination
Unknown
Sunlit
N/A
Visualization observer readout
Local Sidereal Time
18:36:56
Azimuth
Unknown
Elevation
Unknown
Doppler factor
Unknown
Orbital elements
Apogee altitude
1,439.592 km
Perigee altitude
1,396.261 km
Semi-major axis
7,796.064 km
Eccentricity
0.00278
Inclination
101.1019°
RAAN
202.8232°
Arg. of periapsis
145.6286°
True anomaly
7.61009°
Mean anomaly
7.568°
Eccentric anomaly
7.58903°
Mean motion
3.15304 °/min
Orbital period
114.18 mins
BSTAR
0.0011353
Loading maneuver chart data...
Computing Atmospheric mass density...
Loading historical data...
Loading historical data...
Loading historical data...
Loading historical data...
Loading historical data...
Loading historical data...
Loading historical data...

Documentation

Showing up to 5 results
|